Home   Weather   Tucson   Past weeks

Flag for USA Past Weather in Tucson, Arizona, USA — Yesterday and Last 2 Weeks

Now
82 °F

Sunny.


Feels Like: 81 °F
Forecast: 66 / 89 °F
Wind: 1 mph from North

Location: Davis-Monthan Air Force Base

Current Time: Oct 1, 2016 at 12:01:26 PM

Latest Report: Oct 1, 2016 at 10:58 AM


Visibility: 10 mi

Pressure: 29.99 "Hg (27.52 "Hg at 758m altitude)

Humidity: 38%

Dew Point: 54 °F

Location of TucsonLocation

Past Weather in Tucson — Graph

°F

Tucson Temperature Yesterday

Maximum temperature yesterday: 85 °F (at 11:58 AM)
Minimum temperature yesterday: 69 °F (at 5:58 AM)
Average temperature yesterday: 76 °F

High & Low Weather Summary for the Past Weeks

 TemperatureHumidityPressure
High97 °F (Sep 18, 3:58 PM)94% (Sep 29, 5:58 PM)30.14 "Hg (Sep 29, 5:58 PM)
Low55 °F (Sep 25, 4:58 AM)11% (Sep 17, 2:58 PM)29.72 "Hg (Sep 22, 2:58 PM)
Average76 °F48%29.92 "Hg
* Reported Sep 16 10:58 AM — Oct 1 10:58 AM, Tucson, Weather by CustomWeather, © 2016

Note: Actual official high and low records may vary slightly from our data, if they occured in-between our weather recording intervals... More about our weather records

Advertising

Tucson Weather History for the Previous 24 Hours

Scroll right to see more
 ConditionsComfort  
Time TempWeatherWind HumidityBarometerVisibility
10:58 AM
Sat, Oct 1
82 °FSunny.1 mph38%29.99 "Hg10 mi
9:58 AM80 °FSunny.3 mph45%30.00 "Hg10 mi
8:58 AM76 °FSunny.3 mph52%30.01 "Hg10 mi
7:58 AM71 °FSunny.7 mph64%30.00 "Hg10 mi
6:58 AM64 °FSunny.9 mph76%30.01 "Hg10 mi
5:58 AM65 °FClear.7 mph73%29.99 "Hg10 mi
4:58 AM63 °FClear.6 mph81%29.97 "Hg10 mi
3:58 AM65 °FClear.5 mph77%29.96 "Hg10 mi
2:58 AM66 °FClear.1 mph75%29.96 "Hg10 mi
1:58 AM67 °FClear.8 mph73%29.97 "Hg10 mi
12:58 AM67 °FClear.8 mph75%29.96 "Hg10 mi
11:58 PM
Fri, Sep 30
70 °FClear.9 mph68%29.96 "Hg10 mi
10:58 PM71 °FClear.8 mph67%29.96 "Hg10 mi
9:58 PM72 °FPassing clouds.5 mph66%29.95 "Hg10 mi
8:58 PM72 °FPassing clouds.7 mph64%29.95 "Hg10 mi
7:58 PM74 °FOvercast.7 mph65%29.94 "Hg10 mi
6:58 PM75 °FDrizzle. Mostly cloudy.7 mph61%29.93 "Hg10 mi
5:58 PM79 °FSunny.1 mph44%29.93 "Hg10 mi
4:58 PM83 °FSunny.12 mph38%29.92 "Hg10 mi
3:58 PM83 °FPartly sunny.6 mph39%29.93 "Hg10 mi
2:58 PM80 °FScattered clouds.13 mph41%29.96 "Hg10 mi
1:58 PM82 °FThundershowers. Passing clouds.12 mph32%29.96 "Hg10 mi
12:58 PM85 °FScattered clouds.5 mph46%29.96 "Hg10 mi
Weather by CustomWeather, © 2016

See weather overviewHow to use our weather pages